Frankford, WV

11:02 AM EST on February 20, 2017 (GMT -0500)
Greenbrier Valley

Weather History for KLWB - January, 2014

Change the Weather History Date:

Thursday, January 16, 2014

  Actual Average Record
Temperature  
Mean Temperature 24 °F 28 °F  
Max Temperature 30 °F 38 °F 61 °F (1974)
Min Temperature 16 °F 18 °F -10 °F (1994)
Degree Days  
Heating Degree Days 41    
Month to date heating degree days 609  
Since 1 July heating degree days  
Cooling Degree Days 0    
Month to date cooling degree days 0  
Year to date cooling degree days 0  
Moisture  
Dew Point 14 °F    
Average Humidity 63    
Maximum Humidity 73    
Minimum Humidity 53    
Precipitation  
Precipitation 0.00 in - 0.84 in (1954)
Month to date precipitation 0.65  
Year to date precipitation 0.65  
Snow  
Snow 0.00 in - - ()
Month to date snowfall 0.1  
Since 1 July snowfall  
Snow Depth 0.00 in    
Sea Level Pressure  
Sea Level Pressure 29.90 in    
Wind  
Wind Speed 2 mph (West)    
Max Wind Speed 8 mph    
Max Gust Speed -    
Visibility 10 miles    
Events      
T = Trace of Precipitation, MM = Missing Value Source: NWS Daily Summary

Daily Weather History Graph

Daily Weather History Graph

Search for Another Location

Airport or City:

Trip Planner

Search our weather history database for the weather conditions in past years. The results will help you decide how hot, cold, wet, or windy it might be!

Date:

Astronomy

Jan. 16, 2014 Rise Set
Actual Time 7:35 AM EST 5:27 PM EST
Civil Twilight 7:07 AM EST 5:56 PM EST
Nautical Twilight 6:34 AM EST 6:28 PM EST
Astronomical Twilight 6:03 AM EST 6:59 PM EST
Moon 6:16 PM EST (1/16) 7:29 AM EST (1/16)
Length of Visible Light 10h 49m
Length of Day
9h 51m
Full, 100% of the Moon is Illuminated
Jan 16
Full
Jan 24
Last Quarter
Jan 30
New
Feb 6
First Quarter
Feb 14
Full

Hourly Weather History & Observations

Time (EST) Temp. Windchill Dew Point Humidity Pressure Visibility Wind Dir Wind Speed Gust Speed Precip Events Conditions
12:15 AM 22.3 °F - 14.0 °F 71% 29.94 in 10.0 mi Calm Calm - N/A   Scattered Clouds
12:35 AM 21.9 °F - 13.6 °F 70% 29.95 in 10.0 mi Calm Calm - N/A   Scattered Clouds
12:55 AM 21.7 °F - 13.1 °F 69% 29.95 in 10.0 mi Calm Calm - N/A   Scattered Clouds
1:15 AM 19.6 °F - 13.6 °F 78% 29.94 in 10.0 mi Calm Calm - N/A   Scattered Clouds
1:35 AM 21.2 °F - 12.9 °F 70% 29.94 in 10.0 mi Calm Calm - N/A   Scattered Clouds
1:55 AM 20.8 °F - 12.6 °F 70% 29.93 in 10.0 mi Calm Calm - N/A   Clear
2:15 AM 16.5 °F - 12.9 °F 86% 29.93 in 10.0 mi Calm Calm - N/A   Clear
2:35 AM 17.2 °F - 13.8 °F 86% 29.92 in 10.0 mi Calm Calm - N/A   Clear
2:55 AM 19.6 °F - 12.6 °F 74% 29.93 in 10.0 mi Calm Calm - N/A   Clear
3:15 AM 19.2 °F 14.1 °F 12.0 °F 74% 29.93 in 10.0 mi West 3.5 mph - N/A   Clear
3:35 AM 19.4 °F 12.8 °F 12.0 °F 73% 29.93 in 10.0 mi WNW 4.6 mph - N/A   Clear
3:55 AM 19.2 °F - 11.7 °F 72% 29.92 in 10.0 mi Calm Calm - N/A   Clear
4:15 AM 18.5 °F 11.7 °F 10.9 °F 72% 29.93 in 10.0 mi West 4.6 mph - N/A   Clear
4:35 AM 19.4 °F 14.3 °F 10.4 °F 68% 29.94 in 10.0 mi WNW 3.5 mph - N/A   Mostly Cloudy
4:55 AM 19.8 °F 11.9 °F 10.6 °F 68% 29.93 in 10.0 mi NW 5.8 mph - N/A   Overcast
5:15 AM 19.8 °F 10.8 °F 9.7 °F 65% 29.94 in 10.0 mi West 6.9 mph - N/A   Overcast
5:35 AM 19.4 °F 14.3 °F 9.9 °F 66% 29.94 in 10.0 mi WNW 3.5 mph - N/A   Overcast
5:55 AM 19.4 °F 14.3 °F 9.7 °F 66% 29.94 in 10.0 mi NW 3.5 mph - N/A   Overcast
6:15 AM 19.4 °F 14.3 °F 10.2 °F 68% 29.94 in 10.0 mi NNW 3.5 mph - N/A   Overcast
6:35 AM 19.0 °F - 10.2 °F 69% 29.95 in 10.0 mi Calm Calm - N/A   Overcast
6:55 AM 18.5 °F - 10.2 °F 70% 29.93 in 10.0 mi Calm Calm - N/A   Overcast
7:15 AM 17.4 °F - 10.9 °F 76% 29.94 in 10.0 mi Calm Calm - N/A   Overcast
7:35 AM 18.5 °F 13.3 °F 10.9 °F 72% 29.95 in 10.0 mi WSW 3.5 mph - N/A   Overcast
7:55 AM 18.5 °F 11.7 °F 10.6 °F 71% 29.95 in 10.0 mi WSW 4.6 mph - N/A   Overcast
8:15 AM 18.3 °F 10.2 °F 10.6 °F 72% 29.96 in 10.0 mi WSW 5.8 mph - N/A   Overcast
8:35 AM 18.5 °F 13.3 °F 10.2 °F 70% 29.97 in 10.0 mi West 3.5 mph - N/A   Mostly Cloudy
8:55 AM 19.2 °F 14.1 °F 10.6 °F 69% 29.96 in 10.0 mi WSW 3.5 mph - N/A   Scattered Clouds
9:15 AM 19.8 °F 10.8 °F 10.4 °F 67% 29.97 in 10.0 mi West 6.9 mph - N/A   Clear
9:35 AM 19.4 °F 12.8 °F 10.2 °F 68% 29.96 in 10.0 mi WSW 4.6 mph - N/A   Scattered Clouds
9:55 AM 20.7 °F 14.2 °F 11.8 °F 69% 29.97 in 10.0 mi WSW 4.6 mph - N/A   Mostly Cloudy
10:15 AM 20.1 °F - 10.9 °F 68% 29.96 in 10.0 mi Calm Calm - N/A   Overcast
10:35 AM 21.0 °F 13.4 °F 12.0 °F 68% 29.96 in 10.0 mi SW 5.8 mph - N/A   Mostly Cloudy
10:55 AM 21.7 °F 13.2 °F 13.1 °F 69% 29.95 in 10.0 mi SSW 6.9 mph - N/A   Scattered Clouds
11:15 AM 21.7 °F 14.3 °F 12.4 °F 67% 29.94 in 10.0 mi SSW 5.8 mph - N/A   Clear
11:35 AM 22.5 °F 14.1 °F 13.1 °F 67% 29.92 in 10.0 mi South 6.9 mph - N/A   Clear
11:55 AM 23.0 °F 17.0 °F 13.1 °F 66% 29.90 in 10.0 mi South 4.6 mph - N/A   Clear
12:15 PM 23.9 °F 18.0 °F 12.9 °F 63% 29.89 in 10.0 mi SSW 4.6 mph - N/A   Clear
12:35 PM 24.1 °F 16.0 °F 12.2 °F 61% 29.89 in 10.0 mi WSW 6.9 mph - N/A   Clear
12:55 PM 24.6 °F 20.3 °F 13.1 °F 62% 29.87 in 10.0 mi SW 3.5 mph - N/A   Clear
1:15 PM 25.7 °F 20.1 °F 14.4 °F 62% 29.87 in 10.0 mi South 4.6 mph - N/A   Clear
1:35 PM 25.7 °F - 13.1 °F 59% 29.86 in 10.0 mi Calm Calm - N/A   Clear
1:55 PM 27.0 °F - 12.9 °F 56% 29.84 in 10.0 mi Calm Calm - N/A   Clear
2:15 PM 27.5 °F 23.6 °F 14.9 °F 59% 29.84 in 10.0 mi East 3.5 mph - N/A   Clear
2:35 PM 28.4 °F 22.2 °F 14.7 °F 57% 29.84 in 10.0 mi SSW 5.8 mph - N/A   Clear
2:55 PM 28.2 °F 20.2 °F 14.4 °F 56% 29.84 in 10.0 mi SW 8.1 mph - N/A   Clear
3:35 PM 28.9 °F 22.8 °F 13.6 °F 53% 29.86 in 10.0 mi WSW 5.8 mph - N/A   Clear
3:55 PM 29.3 °F - 14.2 °F 53% 29.84 in 10.0 mi Calm Calm - N/A   Clear
4:15 PM 29.7 °F 26.1 °F 14.4 °F 53% 29.85 in 10.0 mi SW 3.5 mph - N/A   Clear
4:35 PM 29.1 °F - 14.2 °F 54% 29.84 in 10.0 mi Calm Calm - N/A   Scattered Clouds
4:55 PM 28.9 °F - 13.6 °F 53% 29.84 in 10.0 mi Calm Calm - N/A   Scattered Clouds
5:15 PM 28.8 °F - 14.9 °F 56% 29.84 in 10.0 mi Calm Calm - N/A   Scattered Clouds
5:35 PM 28.0 °F - 15.1 °F 58% 29.84 in 10.0 mi Calm Calm - N/A   Mostly Cloudy
5:55 PM 27.7 °F - 15.6 °F 61% 29.84 in 10.0 mi Calm Calm - N/A   Overcast
6:15 PM 28.4 °F - 13.6 °F 54% 29.85 in 10.0 mi Calm Calm - N/A   Overcast
6:35 PM 28.0 °F - 16.0 °F 61% 29.85 in 10.0 mi Calm Calm - N/A   Overcast
6:55 PM 27.5 °F 23.6 °F 17.1 °F 65% 29.86 in 10.0 mi NNE 3.5 mph - N/A   Overcast
7:15 PM 28.2 °F - 16.7 °F 62% 29.86 in 10.0 mi Calm Calm - N/A   Overcast
7:35 PM 28.2 °F 24.4 °F 16.3 °F 61% 29.86 in 10.0 mi NNE 3.5 mph - N/A   Overcast
7:55 PM 27.5 °F - 18.1 °F 68% 29.86 in 10.0 mi Calm Calm - N/A   Overcast
8:15 PM 27.9 °F 24.0 °F 18.3 °F 67% 29.86 in 10.0 mi North 3.5 mph - N/A   Overcast
8:35 PM 27.9 °F - 18.1 °F 67% 29.86 in 10.0 mi Calm Calm - N/A   Overcast
8:55 PM 28.0 °F 24.2 °F 17.4 °F 64% 29.87 in 10.0 mi North 3.5 mph - N/A   Overcast
9:15 PM 27.5 °F - 18.3 °F 68% 29.86 in 10.0 mi Calm Calm - N/A   Overcast
9:35 PM 28.0 °F 24.2 °F 17.2 °F 64% 29.88 in 10.0 mi North 3.5 mph - N/A   Overcast
9:55 PM 28.0 °F 24.2 °F 16.9 °F 63% 29.87 in 10.0 mi North 3.5 mph - N/A   Overcast
10:15 PM 27.9 °F - 18.3 °F 67% 29.89 in 10.0 mi Calm Calm - N/A   Overcast
10:35 PM 27.9 °F - 18.7 °F 68% 29.89 in 10.0 mi Calm Calm - N/A   Overcast
10:55 PM 27.5 °F - 18.7 °F 69% 29.89 in 10.0 mi Calm Calm - N/A   Overcast
11:15 PM 27.9 °F 22.6 °F 18.1 °F 67% 29.89 in 10.0 mi West 4.6 mph - N/A   Overcast
11:35 PM 29.7 °F - 16.5 °F 58% 29.88 in 10.0 mi Calm Calm - N/A   Overcast
11:55 PM 27.7 °F - 19.4 °F 71% 29.87 in 10.0 mi Calm Calm - N/A   Overcast